GW5499 Weather Reports


Display with metric or nautical units.
time (UTC)temp
F
wind
direction
speed
MPH
gust
MPH
rain 1hr
in
rain 24hr
in
rain mn
in
humidity
%
barometer
mb
20260505124525 70 209 5.0 15.0 0.00 0.00 0.00 85 1005.6
20260505123023 70 186 3.0 16.0 0.00 0.00 0.00 85 1005.5
20260505121516 70 202 4.0 14.0 0.00 0.00 0.00 85 1005.5
20260505120024 70 136 4.0 14.0 0.00 0.00 0.00 85 1005.4
20260505114523 70 172 2.0 14.0 0.00 0.00 0.00 85 1005.3
20260505113024 70 205 4.0 16.0 0.00 0.00 0.00 84 1005.2
20260505111519 70 142 4.0 14.0 0.00 0.00 0.00 84 1005.2
20260505101546 70 220 7.0 15.0 0.00 0.00 0.00 82 1005.4
20260505100035 70 209 6.0 11.0 0.00 0.00 0.00 82 1005.3
20260505094527 70 211 6.0 15.0 0.00 0.00 0.00 82 1005.4
20260505093025 70 155 2.0 13.0 0.00 0.00 0.00 82 1005.3
20260505091528 70 98 4.0 17.0 0.00 0.00 0.00 82 1005.3
20260505090012 70 211 4.0 16.0 0.00 0.00 0.00 82 1005.2
20260505084519 70 173 6.0 18.0 0.00 0.00 0.00 82 1005.2
20260505083004 70 242 5.0 17.0 0.00 0.00 0.00 82 1005.4
20260505081510 70 197 4.0 14.0 0.00 0.00 0.00 81 1005.6
20260505080013 70 157 5.0 13.0 0.00 0.00 0.00 81 1005.8
20260505074517 70 96 6.0 15.0 0.00 0.00 0.00 81 1005.7
20260505073012 70 198 6.0 23.0 0.00 0.00 0.00 80 1005.8
20260505071504 70 204 4.0 18.0 0.00 0.00 0.00 80 1005.9
20260505070014 71 186 4.0 14.0 0.00 0.00 0.00 79 1006.1
20260505064518 71 217 6.0 14.0 0.00 0.00 0.00 78 1006.4
20260505063018 71 186 6.0 12.0 0.00 0.00 0.00 77 1006.6
20260505061512 71 220 5.0 15.0 0.00 0.00 0.00 77 1006.6
20260505060008 72 200 7.0 13.0 0.00 0.00 0.00 76 1006.5
20260505054511 72 205 8.0 16.0 0.00 0.00 0.00 75 1006.7
20260505053030 72 169 6.0 16.0 0.00 0.00 0.00 75 1006.8
20260505051537 72 173 5.0 16.0 0.00 0.00 0.00 75 1006.9
20260505041523 71 159 3.0 10.0 0.00 0.00 0.00 74 1007.3
20260505040025 71 216 3.0 7.0 0.00 0.00 0.00 73 1007.3
20260505034509 71 190 3.0 9.0 0.00 0.00 0.00 73 1007.4
20260505033016 72 148 2.0 8.0 0.00 0.00 0.00 72 1007.5
20260505031521 72 119 3.0 10.0 0.00 0.00 0.00 71 1007.5
20260505030025 72 175 3.0 9.0 0.00 0.00 0.00 71 1007.5
20260505024503 72 147 4.0 8.0 0.00 0.00 0.00 70 1007.4
20260505023014 72 117 2.0 9.0 0.00 0.00 0.00 70 1007.2
20260505021516 73 178 2.0 7.0 0.00 0.00 0.00 68 1007.3
20260505020028 73 146 4.0 9.0 0.00 0.00 0.00 67 1007.4
20260505014526 73 184 2.0 7.0 0.00 0.00 0.00 67 1007.3
20260505013009 74 160 1.0 9.0 0.00 0.00 0.00 67 1007.2
20260505011520 74 140 1.0 7.0 0.00 0.00 0.00 65 1007.0
20260505010030 75 215 3.0 12.0 0.00 0.00 0.00 64 1007.2
20260505004524 75 171 4.0 14.0 0.00 0.00 0.00 63 1007.1
20260505003025 76 137 3.0 11.0 0.00 0.00 0.00 63 1007.2
20260505001512 76 164 3.0 7.0 0.00 0.00 0.00 60 1007.1
20260505000033 76 149 4.0 10.0 0.00 0.00 0.00 59 1007.2
20260504234524 77 157 4.0 19.0 0.00 0.00 0.00 57 1007.3
20260504233025 78 178 5.0 11.0 0.00 0.00 0.00 56 1007.5
20260504231511 78 232 3.0 17.0 0.00 0.00 0.00 55 1007.8
20260504230020 78 139 4.0 12.0 0.00 0.00 0.00 55 1007.9
20260504224523 79 165 6.0 15.0 0.00 0.00 0.00 54 1008.0
20260504223024 79 166 6.0 17.0 0.00 0.00 0.00 54 1008.1
20260504221539 79 196 6.0 15.0 0.00 0.00 0.00 53 1008.1
20260504220014 79 132 7.0 17.0 0.00 0.00 0.00 52 1008.6
20260504214517 79 176 4.0 16.0 0.00 0.00 0.00 53 1008.6
20260504213022 80 199 5.0 11.0 0.00 0.00 0.00 52 1008.9
20260504211537 80 246 6.0 14.0 0.00 0.00 0.00 52 1009.0
20260504210029 80 207 7.0 13.0 0.00 0.00 0.00 51 1009.4
20260504204519 79 219 9.0 18.0 0.00 0.00 0.00 49 1009.8
20260504203022 80 146 5.0 15.0 0.00 0.00 0.00 48 1010.1
20260504201525 79 188 5.0 16.0 0.00 0.00 0.00 50 1010.4
20260504200030 78 155 4.0 17.0 0.00 0.00 0.00 50 1010.5
20260504194537 78 184 9.0 15.0 0.00 0.00 0.00 48 1010.8
20260504193021 78 202 6.0 18.0 0.00 0.00 0.00 52 1011.0
20260504191534 78 182 7.0 16.0 0.00 0.00 0.00 50 1011.3
20260504190026 77 265 4.0 16.0 0.00 0.00 0.00 53 1011.6
20260504184527 77 169 4.0 12.0 0.00 0.00 0.00 51 1011.9
20260504183020 76 140 4.0 11.0 0.00 0.00 0.00 53 1012.1
20260504181524 76 120 6.0 17.0 0.00 0.00 0.00 52 1012.1
20260504180009 75 186 7.0 16.0 0.00 0.00 0.00 51 1012.5
20260504174529 75 169 6.0 14.0 0.00 0.00 0.00 53 1012.8
20260504173019 75 184 7.0 15.0 0.00 0.00 0.00 52 1012.9
20260504171531 75 153 5.0 13.0 0.00 0.00 0.00 52 1013.0